Location: Unspecified
(41.1637°N, 24.2901°E)
Time: 16:38:06
(UTC+01:00)

ISS - Pass Details

Date: 21 January 2020
Orbit: 415 x 421 km, 51.6° (Epoch: 18 January)

Event Time Altitude Azimuth Distance (km) Brightness Sun altitude
Rises 19:11:29 0° 263° (W) 2,358 1.2 -31.1°
Reaches altitude 10° 19:13:47 10° 276° (W) 1,495 -0.1 -31.5°
Enters shadow 19:14:05 12° 279° (W) 1,394 -0.3 -31.5°
